Location: Ergnies
(50.0854°N, 2.0375°E)
Time: 20:15:35
(UTC+00:00)

Sich 1 - Pass Details

Date: 14 January 2026
Orbit: 571 x 598 km, 82.5° (Epoch: 13 February)

Event Time Altitude Azimuth Distance (km) Brightness Sun altitude
Rises 06:02:58 0° 211° (SSW) 2,805 6.3 -15.8°
Reaches altitude 10° 06:05:18 10° 221° (SW) 1,904 5.3 -15.5°
Maximum altitude 06:09:10 35° 287° (WNW) 956 3.5 -14.9°
Drops below altitude 10° 06:13:02 10° 354° (N) 1,904 5.3 -14.3°
Sets 06:15:23 0° 4° (N) 2,804 6.3 -13.9°
